RH
83 84 85 85 85 86 84 82 82 82 86 83 78 77 75 75 73 70 70 69 70 69 68 66 65 64 60 62 66 67 69 70 71 75 80 85 88 88 85 84 87 87 88 88 91 93 95 97 96 94 92 91 92 93 93 94 95 95 96 98 99 99 97 95 95 96 95 92 94 96 95 93 90 89 88 90 95 95 89 87 84 84 84 82 81
85 84 86 89 87 85 84 84 85 86 87 83 78 76 74 73 72 69 67 67 68 68 68 64 60 59 58 60 67 70 71 70 68 69 74 78 82 89 90 87 87 87 88 90 92 93 94 94 94 95 95 95 94 94 95 96 98 99 98 96 96 96 95 95 95 96 97 94 94 94 92 94 96 94 90 89 96 98 96 95 91 87 87 85 81
88 86 87 87 86 85 85 85 86 87 84 81 79 78 75 74 73 72 71 68 68 68 66 64 58 56 59 62 67 71 71 70 67 65 68 70 73 81 90 90 86 85 87 88 90 91 89 88 89 91 94 97 98 97 95 95 97 98 97 95 96 96 95 94 95 97 98 98 97 95 94 95 97 99 96 91 93 96 96 97 96 89 85 85 84
90 88 86 84 86 87 87 86 86 86 85 83 83 81 78 78 77 77 76 72 71 71 68 66 63 59 60 64 67 68 68 67 66 65 66 68 68 71 80 86 84 84 85 84 84 84 83 83 84 86 90 95 98 99 98 97 98 97 97 97 98 99 98 96 96 97 97 98 99 98 98 97 97 98 98 94 91 92 95 95 96 92 87 85 82
93 90 87 87 89 89 89 88 87 87 88 86 85 83 80 79 79 77 76 73 72 72 71 68 68 66 63 64 66 65 64 64 63 64 64 66 68 67 69 73 77 80 81 81 78 76 76 77 79 83 89 95 98 100 100 100 99 98 98 100 100 99 100 99 98 97 95 94 98 99 100 99 97 98 98 98 94 92 94 95 96 96 94 91 83
93 92 90 90 90 91 91 89 90 89 89 88 85 82 79 76 77 75 74 73 71 71 71 69 67 67 68 68 68 66 62 60 60 61 63 65 67 66 66 66 70 72 74 76 74 69 66 64 64 68 74 80 88 95 99 101 100 97 97 99 100 100 100 100 100 99 98 96 97 98 98 100 100 99 99 100 99 97 96 95 97 97 95 95 90
92 92 93 92 90 92 92 91 91 88 88 89 84 80 79 78 80 79 75 71 70 69 67 68 67 67 70 69 67 65 60 58 56 55 58 62 64 65 65 66 68 68 68 69 68 63 60 59 58 56 57 59 62 71 81 93 101 98 96 97 97 99 99 100 100 99 100 99 99 100 97 97 99 100 100 99 100 100 99 98 98 98 96 95 95
90 92 92 90 89 91 91 92 91 87 88 88 81 79 79 80 84 84 79 72 69 68 64 68 74 73 72 69 66 62 57 55 53 53 55 55 58 60 62 63 64 64 64 63 60 54 47 44 45 42 41 44 44 46 54 73 95 100 98 94 90 90 90 96 102 100 101 100 99 101 97 95 97 98 100 100 100 100 100 100 100 99 98 97 96
87 90 89 86 86 87 88 90 89 85 88 88 82 81 80 79 84 85 82 75 68 66 64 70 78 76 72 69 65 61 56 52 48 49 51 51 52 53 55 57 56 55 55 54 50 47 37 27 29 28 20 21 25 26 28 43 73 92 93 85 80 80 75 79 89 92 95 99 99 101 97 93 94 95 96 99 100 100 100 100 100 100 100 99 98
84 86 86 83 83 85 87 88 88 86 87 87 84 85 85 84 87 84 81 77 70 68 66 70 77 74 71 70 65 59 53 48 46 44 45 47 48 48 47 46 46 46 47 48 45 43 40 33 37 38 23 11 10 15 15 18 40 66 78 76 76 79 72 69 75 76 78 82 88 94 93 91 91 90 90 94 98 100 100 100 100 100 100 100 99
84 87 85 83 83 85 86 84 84 85 86 84 79 83 87 87 88 85 81 77 74 75 71 71 75 72 71 72 67 62 55 47 44 42 43 45 45 45 44 42 42 43 44 46 47 45 43 40 41 43 37 23 13 13 13 13 19 38 54 61 73 82 79 78 79 78 79 75 71 72 76 79 83 87 87 87 92 98 100 100 99 97 97 99 99
84 87 87 84 84 83 81 78 78 83 86 85 80 83 86 84 84 84 81 75 75 77 70 71 78 74 73 74 70 66 60 53 46 41 40 41 42 43 44 43 43 44 45 45 48 49 47 45 42 42 43 38 32 27 28 31 20 22 38 39 53 73 76 83 89 87 90 86 74 67 66 65 65 73 79 78 81 90 97 100 98 92 92 96 98
84 86 84 81 80 77 75 76 79 83 85 85 83 84 85 84 83 80 77 74 76 77 67 67 74 72 73 74 73 69 60 54 49 43 39 38 40 43 44 47 45 44 46 45 44 45 45 46 45 46 45 42 45 41 45 52 31 28 48 37 36 57 60 70 86 88 91 93 87 82 78 72 65 60 59 62 71 80 88 94 96 90 88 91 97
84 81 78 75 73 73 77 81 83 83 83 83 83 84 84 84 82 74 71 71 77 81 74 68 64 63 68 67 68 70 63 53 47 44 41 39 41 43 45 46 46 44 43 42 41 39 40 44 45 48 48 45 47 45 46 52 33 27 45 34 30 49 52 61 79 83 85 90 92 90 88 86 81 67 48 44 59 78 83 82 85 87 86 88 94
78 76 74 73 73 77 83 84 83 81 82 84 84 86 85 85 81 71 65 62 68 78 82 80 66 55 60 61 62 69 68 57 46 41 41 41 42 44 45 43 42 43 40 39 40 39 39 43 46 49 53 52 52 51 48 48 41 37 38 24 21 34 36 48 70 80 85 88 88 90 90 90 91 82 63 51 61 80 83 74 73 76 79 85 89
75 75 75 74 76 81 83 83 82 80 81 81 82 84 84 84 81 73 66 55 55 67 77 85 79 65 58 53 53 58 62 62 53 44 41 44 48 49 50 48 45 44 40 37 39 43 42 45 51 53 56 58 55 55 52 49 54 61 59 35 21 25 24 28 44 60 77 86 86 89 91 90 91 89 82 78 81 88 88 82 80 70 65 75 84
74 74 76 76 78 80 81 81 81 79 78 78 79 82 82 81 77 73 70 57 50 56 62 70 73 71 65 57 54 46 43 54 59 50 38 39 48 52 51 52 50 45 40 37 36 41 42 44 51 53 55 57 54 53 52 53 56 65 70 46 25 29 29 27 33 40 56 69 77 86 90 89 90 89 88 90 89 90 91 91 92 81 66 66 74
75 77 78 79 79 80 80 78 77 77 76 75 77 81 80 79 75 69 68 63 53 47 47 49 47 49 51 53 59 54 43 45 50 45 35 32 39 46 49 51 50 45 38 36 37 41 42 42 46 47 51 51 51 51 48 51 54 59 68 48 24 28 31 33 39 41 44 48 58 75 86 89 90 88 88 90 88 88 91 90 92 94 83 70 62
79 81 80 80 80 81 79 75 71 70 70 72 75 77 76 76 74 68 67 70 63 49 45 42 35 36 37 32 37 49 52 48 42 38 37 37 36 38 44 46 46 46 41 35 38 46 47 43 40 40 47 47 47 48 43 46 50 55 62 41 19 25 31 35 40 40 39 38 47 65 77 81 85 89 89 87 87 86 88 90 90 93 94 86 74
81 81 79 79 79 79 77 72 67 64 64 68 73 74 73 71 70 68 67 71 68 58 52 43 33 37 41 35 31 37 45 47 44 37 34 37 36 36 42 46 44 42 44 40 38 46 47 45 42 38 44 47 44 44 42 43 46 51 52 30 14 19 24 32 35 34 35 36 42 55 61 61 70 86 87 82 86 85 84 90 90 88 91 92 92
81 79 78 78 77 75 73 70 66 63 61 66 71 72 71 69 66 62 57 59 63 59 54 47 44 44 45 47 46 40 39 43 43 37 31 29 29 31 39 47 46 41 43 44 41 44 44 44 43 37 39 43 41 40 41 43 47 51 43 22 14 19 19 24 29 29 33 35 36 44 47 44 58 80 84 82 85 84 82 87 90 88 88 88 91
80 80 79 78 77 73 70 69 68 65 63 65 67 65 63 60 54 50 48 50 57 59 55 52 54 54 49 47 46 41 38 39 38 36 34 29 26 25 27 32 38 40 42 43 45 47 46 44 41 36 37 38 36 37 39 43 49 52 41 25 21 26 25 25 27 27 29 32 33 38 38 40 61 82 83 84 87 86 83 83 88 89 87 88 90
81 82 80 79 78 74 70 69 69 68 66 65 64 59 56 50 43 44 50 54 55 57 58 56 55 56 53 48 45 44 41 40 39 37 35 33 30 26 23 24 26 30 36 43 48 47 42 39 36 35 36 36 34 36 39 44 46 47 43 35 31 36 41 40 38 35 32 32 32 34 34 41 66 83 82 83 84 85 86 82 84 90 89 89 91
80 79 78 78 78 75 71 68 70 71 68 64 62 57 53 50 48 49 54 58 58 58 61 61 58 56 54 51 49 49 47 46 46 43 39 37 35 29 26 29 28 24 29 39 41 36 32 31 29 30 33 33 33 36 40 42 40 42 44 41 40 47 52 50 49 46 42 40 38 37 37 41 60 76 80 81 80 83 87 83 83 89 90 88 89
77 76 75 76 77 75 72 70 71 71 67 63 60 55 51 49 51 53 54 57 59 62 66 67 62 56 54 51 50 50 50 50 49 48 46 41 39 36 31 33 34 28 24 27 28 26 25 24 24 27 29 29 31 35 38 38 39 45 45 43 47 52 51 49 47 48 46 46 45 44 43 43 51 63 70 74 78 80 79 80 86 89 87 86 86
77 74 71 73 75 77 75 73 71 69 66 63 58 54 51 47 50 53 55 57 58 59 65 68 66 60 56 54 53 54 53 53 52 50 49 45 43 42 36 33 34 28 21 20 20 21 21 20 23 25 25 27 29 31 34 35 42 45 38 41 50 48 47 48 47 44 42 45 49 49 49 49 49 52 57 63 67 68 69 78 87 86 82 82 83
78 75 72 73 77 78 75 73 71 69 66 63 58 55 53 51 54 57 57 59 59 59 62 66 67 65 61 57 56 55 54 55 55 53 52 49 47 45 39 35 32 26 24 22 19 21 22 21 23 23 23 25 26 29 32 35 40 37 32 43 52 46 47 51 48 43 40 43 48 50 51 53 53 53 55 56 57 64 75 84 84 81 80 81 85
78 79 76 77 79 76 73 72 71 67 64 61 56 55 56 54 56 58 59 58 58 58 59 63 67 66 63 59 56 57 57 58 57 56 55 52 49 46 41 37 34 28 26 26 24 24 24 23 24 22 21 23 24 27 31 35 38 36 38 47 50 49 51 50 43 40 41 45 49 51 53 54 56 58 57 59 66 75 82 83 80 80 82 83 87
79 82 80 79 77 73 72 72 70 66 64 60 56 56 57 57 57 58 59 58 58 58 57 59 63 63 60 58 56 56 58 58 57 57 56 54 50 47 43 40 37 32 30 30 30 28 26 27 27 23 23 25 26 29 33 38 40 39 43 47 49 52 51 43 40 41 45 49 50 52 55 56 58 60 61 67 75 79 78 78 80 81 83 84 86
79 82 81 79 76 73 72 71 69 67 63 59 57 57 58 58 58 58 58 57 56 56 56 58 59 59 57 57 55 56 58 59 58 57 56 53 48 45 45 45 44 41 38 37 35 31 31 33 30 27 27 28 28 32 38 40 38 37 42 45 47 49 44 41 44 47 49 50 51 54 56 58 61 60 63 68 71 74 76 77 79 80 82 84 82
76 78 77 75 74 73 72 70 68 66 63 61 60 59 59 58 58 57 57 57 55 55 57 57 57 57 57 57 56 56 58 56 54 53 52 51 48 44 44 47 49 50 49 45 40 35 35 36 34 31 30 31 33 36 36 34 33 36 41 43 44 44 43 45 47 48 50 52 54 56 57 58 60 60 62 64 65 72 79 79 78 79 80 79 79
73 74 72 70 71 71 70 69 67 64 63 63 62 60 59 58 57 56 55 53 52 55 56 56 54 53 53 54 54 54 53 51 49 48 48 50 49 46 43 43 45 49 50 46 42 38 37 36 34 31 30 33 34 33 31 31 34 37 39 41 43 43 45 46 47 48 50 52 52 53 56 57 59 61 62 63 66 72 77 76 74 75 76 75 75
70 70 68 67 68 68 67 66 64 63 63 64 63 60 58 57 56 56 54 51 51 53 54 54 52 50 49 49 52 54 53 50 47 46 47 48 47 44 43 42 43 45 46 43 41 38 36 34 32 31 31 32 32 31 31 33 36 39 40 41 42 44 46 47 48 49 47 48 50 51 54 57 58 61 61 62 65 67 69 71 70 71 73 74 73
66 65 65 67 66 65 64 62 61 61 61 63 62 58 57 57 58 57 53 51 52 54 53 53 52 51 51 50 52 55 56 54 50 47 48 49 45 44 45 45 44 45 43 43 42 39 36 35 33 32 31 32 34 33 32 34 36 39 39 40 42 44 46 46 46 46 45 47 50 52 55 57 59 61 62 63 65 66 67 69 70 71 72 74 74
64 64 65 66 65 64 62 60 60 60 60 61 59 55 55 56 57 57 54 53 55 54 52 51 50 51 52 52 55 57 56 56 53 49 50 50 46 47 48 45 44 44 43 44 45 41 38 37 35 33 32 35 36 34 33 35 37 38 38 39 41 42 42 45 46 45 45 47 51 54 57 59 60 61 63 64 66 67 69 70 71 72 72 73 75
65 66 65 64 62 62 61 60 59 59 60 60 56 52 52 53 54 55 54 55 55 53 51 51 50 51 51 52 55 56 55 56 53 50 52 52 48 48 46 42 41 43 44 46 45 41 40 40 38 36 35 35 35 34 35 36 35 37 39 40 41 41 41 44 46 44 44 48 52 55 57 59 61 62 63 65 66 67 68 68 69 71 72 72 74
66 67 64 61 60 61 60 59 58 59 60 58 54 52 51 52 53 54 54 55 55 53 53 53 52 53 53 52 53 55 56 57 55 52 52 52 51 50 47 43 43 44 45 45 42 40 41 40 36 35 35 34 34 36 36 34 34 38 41 40 40 40 42 44 45 43 46 50 53 55 58 60 61 62 64 65 66 66 66 67 68 68 70 71 71
65 65 62 60 60 59 58 57 56 57 57 56 54 53 53 54 54 54 55 55 55 55 55 54 54 55 54 54 56 57 56 56 55 53 51 51 50 49 48 46 45 45 44 41 38 38 38 35 33 33 32 32 35 37 34 33 38 40 39 39 39 39 43 46 45 44 47 52 54 57 59 60 62 64 65 65 65 65 65 66 66 67 68 69 69
63 62 61 61 60 58 56 56 56 56 57 56 54 54 54 55 56 57 57 56 57 59 58 55 55 56 56 57 59 57 54 53 54 53 49 47 47 46 45 45 45 44 41 37 35 35 33 31 31 31 31 32 35 35 34 36 40 40 39 40 40 41 44 46 45 45 49 53 56 58 60 61 63 64 64 64 64 63 63 64 66 67 68 68 69
63 61 60 62 62 59 57 57 57 58 58 57 56 56 55 56 58 58 59 58 58 60 60 57 57 57 56 58 59 56 52 48 48 49 45 43 45 43 41 42 42 40 38 35 33 31 30 30 30 29 30 33 33 33 35 38 40 40 40 43 44 44 45 46 44 46 51 55 57 59 61 62 64 65 65 64 63 63 63 64 65 67 67 68 68
66 64 61 63 63 62 61 61 61 61 61 59 59 58 56 56 59 59 59 59 58 60 60 58 59 58 57 59 55 47 42 40 39 39 39 38 41 41 40 40 39 37 36 35 32 30 30 30 29 29 32 33 32 34 37 39 40 41 43 45 46 44 45 46 46 47 52 56 59 61 63 66 67 67 65 63 62 63 63 63 63 64 65 67 68
69 66 64 63 62 63 64 63 64 65 64 63 64 62 58 58 58 59 60 59 58 58 57 57 59 58 58 60 54 43 42 44 41 38 38 38 38 38 35 32 32 35 38 36 32 31 33 31 30 33 34 33 34 36 37 39 41 43 45 46 44 43 46 47 46 48 52 57 62 65 67 68 68 65 63 62 61 61 60 60 60 63 65 67 67
71 73 71 69 67 64 64 65 67 68 69 68 65 60 58 60 60 59 59 58 58 58 57 57 58 56 58 60 56 53 52 49 48 48 47 46 46 42 37 33 30 31 34 36 35 36 36 35 35 36 35 34 36 37 37 39 42 45 47 46 43 45 48 47 44 46 52 59 66 69 68 67 66 64 63 61 59 59 58 59 60 62 64 67 67
63 60 55 64 75 70 65 67 68 69 73 69 60 55 54 57 62 62 58 56 58 57 56 55 53 53 57 57 56 56 51 45 49 53 51 51 51 49 48 46 39 33 34 37 38 40 41 41 40 39 36 36 38 38 39 43 46 48 47 44 45 49 49 46 45 48 53 61 67 69 68 67 65 64 62 61 60 59 59 60 61 63 65 67 69
51 31 22 47 76 76 68 69 68 70 74 66 58 57 54 52 59 64 60 56 56 56 55 55 53 54 56 55 52 53 52 52 53 51 48 50 51 51 53 51 44 41 43 43 38 38 42 44 42 39 38 39 40 40 43 47 50 49 47 47 51 52 48 45 47 50 56 63 69 72 71 68 66 66 64 63 62 61 62 63 64 65 67 68 69
37 26 33 57 76 75 69 68 68 71 73 63 58 59 57 54 57 58 57 56 56 57 57 57 58 58 56 54 49 47 52 56 51 45 47 50 51 52 52 49 46 46 50 49 41 37 41 43 42 41 41 43 42 42 45 50 52 50 50 53 55 52 46 44 45 50 57 64 70 75 75 71 69 69 67 64 65 65 65 66 66 67 68 69 70
33 40 59 70 73 71 70 69 70 74 72 61 58 59 59 60 56 54 59 62 59 60 60 59 61 61 56 54 51 48 53 54 44 37 40 45 50 53 49 47 48 48 50 49 45 43 44 42 42 44 42 40 37 37 43 51 54 54 56 56 52 47 44 41 44 51 59 66 72 78 79 75 72 71 68 67 70 69 67 67 68 68 69 68 69
49 54 63 69 70 72 72 70 73 77 70 60 61 61 60 60 57 57 63 62 56 57 59 59 61 59 54 53 51 48 53 53 41 33 34 40 50 52 47 48 50 48 47 47 46 47 46 39 37 37 34 32 32 36 45 53 53 54 55 51 45 44 44 42 45 53 62 68 73 79 84 80 73 72 73 72 75 74 72 70 69 69 70 70 70
59 59 63 68 71 71 72 72 72 72 67 62 62 60 58 58 58 57 55 51 49 54 57 58 58 55 53 52 50 52 55 50 40 34 35 41 50 52 47 50 52 47 46 47 46 47 46 42 41 40 38 39 39 41 48 50 47 47 49 45 43 45 44 43 47 56 64 68 71 80 89 84 76 76 79 77 78 78 73 68 67 71 74 74 71
59 59 62 66 68 69 71 70 69 69 66 62 58 59 59 55 51 48 43 41 46 52 56 58 55 51 48 43 42 50 54 45 37 36 36 42 51 52 47 50 51 46 44 46 46 46 47 49 51 51 49 46 41 40 43 43 42 43 44 43 44 45 44 43 49 58 64 65 72 85 93 88 82 83 83 78 76 74 71 67 67 70 75 76 71
57 58 61 64 67 70 70 70 71 70 66 61 58 58 53 37 31 41 42 40 46 52 52 54 52 48 46 39 35 40 42 38 36 38 38 40 47 50 50 51 48 43 42 44 45 47 51 53 54 53 49 42 37 36 37 38 39 40 41 44 47 46 45 45 49 58 64 67 77 90 94 93 91 90 88 85 80 77 75 72 69 69 74 76 72
Wind_Speed
3 2 2 2 2 2 3 3 3 3 3 2 2 2 1 1 1 1 1 1 1 2 2 2 2 2 3 3 4 4 4 4 4 5 6 9 10 8 6 6 6 5 5 7 8 9 11 11 12 13 13 12 11 10 9 9 9 9 9 10 11 12 14 14 14 14 12 11 12 13 13 14 14 14 13 13 12 13 13 12 12 12 12 12 12
3 2 2 2 2 2 3 3 3 3 2 2 2 2 2 2 2 2 2 2 2 3 3 3 3 3 4 4 5 4 5 5 4 5 6 8 9 9 8 6 6 6 5 6 7 8 8 8 10 12 13 14 13 12 10 9 9 9 9 9 10 11 12 13 13 13 12 11 12 13 14 15 15 14 14 13 12 13 13 12 12 12 12 12 12
3 3 2 2 2 2 3 3 3 3 3 3 3 3 3 3 3 3 3 3 4 4 3 3 3 4 5 5 5 5 5 6 6 6 6 6 6 8 9 8 7 6 7 7 7 7 7 7 7 8 10 11 13 12 11 10 10 10 10 10 11 12 12 13 13 12 12 12 12 14 15 16 17 16 14 14 13 13 13 14 14 14 14 13 13
2 2 2 3 3 3 3 3 3 3 3 4 3 3 3 3 3 3 4 4 4 4 3 3 4 4 5 5 6 6 6 7 7 7 7 7 5 5 7 9 9 7 7 7 7 7 6 6 6 6 6 7 10 12 12 11 10 9 10 11 10 12 13 13 13 13 13 12 11 12 14 15 18 18 17 16 15 15 16 16 16 15 15 15 15
2 2 2 3 3 3 3 3 3 3 3 3 3 4 3 3 3 3 4 4 3 4 3 3 4 5 5 5 6 7 7 7 8 8 8 8 7 6 6 7 8 9 7 7 7 8 7 7 7 7 7 6 7 10 13 13 12 9 11 13 11 12 15 15 15 14 14 14 13 13 13 14 16 17 19 18 16 16 17 17 17 17 17 16 16
2 3 3 3 4 4 3 3 4 3 3 3 4 4 4 4 3 3 4 4 3 4 4 4 4 5 5 5 7 8 8 8 8 8 8 8 8 7 7 6 6 8 8 8 8 9 9 9 9 9 9 9 8 9 11 13 14 10 8 11 13 14 15 16 16 16 15 15 15 14 14 15 15 14 16 18 18 19 18 18 18 19 19 17 17
2 3 3 3 4 4 4 4 4 4 4 4 4 4 4 4 4 4 4 4 4 3 3 4 4 4 4 5 7 8 8 9 9 9 9 9 9 8 8 8 7 7 7 8 9 10 10 10 11 11 10 10 10 10 10 10 12 13 10 9 10 11 12 14 15 16 15 15 16 16 15 16 16 13 11 13 15 18 18 18 18 19 20 19 18
3 3 4 4 4 5 5 4 5 4 4 4 4 4 4 4 4 4 4 4 4 3 3 3 4 4 4 5 7 8 9 9 9 9 9 9 9 9 9 9 9 9 8 8 9 10 11 10 11 11 11 11 11 11 11 11 13 14 14 13 10 10 11 11 12 14 15 14 16 17 15 15 16 15 12 14 17 15 15 16 18 20 21 20 20
3 4 5 5 5 6 5 4 5 5 5 5 4 4 3 3 3 4 3 4 4 3 2 3 5 4 6 7 9 9 10 10 10 9 9 9 9 9 9 9 9 9 9 9 9 10 11 12 13 13 13 12 12 12 12 12 14 15 17 16 15 14 13 12 11 13 14 12 14 17 16 15 16 16 14 14 18 18 15 14 14 16 18 19 21
4 5 6 5 5 5 5 4 4 5 5 4 4 3 3 2 2 3 3 3 3 2 1 4 6 5 7 9 10 10 10 10 10 9 9 9 9 9 9 9 9 10 10 10 10 11 11 12 13 13 14 14 13 13 13 12 13 15 17 17 17 18 16 15 14 14 15 14 13 16 17 16 17 17 15 14 16 18 18 16 14 14 14 16 19
6 6 6 5 5 5 4 3 4 5 4 4 4 3 3 3 3 3 3 2 2 0 2 6 8 7 8 10 11 11 10 10 10 10 9 9 9 9 8 9 9 10 10 10 10 12 12 13 12 11 12 16 16 15 15 15 14 14 16 17 17 19 18 18 18 17 17 17 16 16 18 18 17 17 16 16 16 17 19 17 16 15 15 16 17
6 5 6 5 4 3 2 3 4 4 3 3 3 3 3 3 2 2 2 1 2 2 5 8 9 8 9 11 11 11 11 11 11 10 10 9 9 8 8 8 8 9 9 9 10 11 12 13 13 12 11 13 17 18 18 18 17 15 16 17 17 18 19 19 19 19 19 19 18 18 18 19 18 17 16 16 17 18 18 18 16 16 16 17 17
6 6 6 5 3 3 3 4 4 3 3 3 3 3 2 2 1 1 1 0 2 3 6 9 9 8 8 9 10 11 11 11 11 11 10 9 9 8 8 7 7 8 8 9 9 10 11 12 12 13 12 12 13 16 17 17 18 18 18 19 19 19 19 19 20 20 20 20 19 19 19 20 20 19 18 17 17 18 19 18 17 16 16 18 17
8 6 4 4 4 4 4 4 3 3 3 3 3 3 2 1 0 1 2 3 4 4 5 7 7 7 7 7 7 7 9 11 11 11 10 9 8 8 7 7 7 7 7 8 9 10 10 11 12 13 13 12 12 12 13 14 16 17 18 19 19 20 20 20 20 20 20 21 20 20 20 20 20 21 20 19 18 18 19 20 20 17 16 17 17
6 4 4 5 5 4 3 3 3 3 3 3 3 3 2 1 1 2 3 4 5 4 3 5 5 6 8 5 5 6 6 8 10 10 10 9 8 8 7 7 7 7 7 7 8 9 10 10 12 13 13 12 11 11 11 12 14 15 17 18 18 18 20 20 21 21 21 21 21 20 20 21 21 21 21 20 19 20 20 21 21 20 17 17 17
4 4 4 4 4 3 3 3 3 3 2 2 2 3 3 3 3 2 2 3 5 5 3 2 4 3 5 4 4 5 3 7 9 8 8 8 8 8 7 6 6 7 7 8 8 8 9 9 10 11 11 10 10 10 10 11 13 13 15 19 19 18 18 18 19 21 21 22 21 21 21 21 21 21 21 20 20 20 21 20 20 21 20 18 18
4 4 4 4 3 3 3 3 3 3 3 3 4 4 4 4 4 3 3 3 5 6 6 4 1 1 3 3 3 3 1 9 10 6 5 6 7 7 7 6 6 6 7 8 8 7 7 8 8 9 9 9 10 10 10 11 13 12 12 19 22 20 20 19 19 20 20 21 21 21 21 21 22 22 21 20 20 20 20 20 20 20 20 20 19
5 5 5 4 4 4 4 4 4 5 5 5 6 6 6 6 5 4 4 4 5 6 8 9 8 7 7 6 3 4 4 6 7 4 6 6 6 6 7 7 5 6 7 8 8 8 7 7 7 8 8 9 9 10 10 10 12 12 11 19 24 21 21 21 20 20 20 20 21 21 22 22 22 22 21 21 20 20 20 20 20 20 20 20 21
6 5 4 4 5 5 5 5 6 6 6 7 7 6 6 6 5 5 5 4 3 5 6 7 9 10 11 10 10 9 7 3 1 3 6 5 5 6 6 7 6 5 5 7 8 7 7 7 7 8 8 9 9 10 10 10 12 11 11 20 24 21 21 21 21 22 22 21 21 21 22 22 22 22 22 22 21 20 20 20 21 20 20 20 21
5 4 4 5 5 6 6 6 7 7 7 7 8 8 7 7 7 6 6 5 4 5 6 6 7 8 9 10 11 11 10 9 7 3 1 4 5 5 5 5 6 6 4 5 7 7 7 7 7 8 8 8 9 10 10 11 12 11 13 22 25 22 21 21 21 23 23 23 23 22 23 22 22 22 22 22 22 21 21 21 21 21 20 20 21
4 4 5 6 6 6 7 7 8 7 8 9 9 9 9 9 9 8 8 9 8 7 7 7 6 6 5 6 7 8 9 9 8 7 4 3 3 3 3 3 4 5 4 3 5 6 7 7 7 8 9 8 9 10 10 12 12 11 16 25 26 22 21 19 20 22 23 24 25 24 24 24 23 22 22 22 22 22 22 21 21 21 21 21 21
4 5 6 6 7 7 8 8 9 9 9 10 10 10 10 11 11 12 12 11 11 10 9 8 8 7 6 5 5 5 6 7 7 8 6 5 4 4 3 1 2 3 2 1 2 3 5 7 7 8 9 9 10 11 12 13 12 13 20 28 27 23 22 21 21 21 21 23 24 25 26 25 23 22 22 23 23 22 22 22 22 21 21 21 21
5 6 6 7 7 8 8 9 9 10 10 10 10 10 10 12 13 14 14 12 12 12 12 11 10 10 9 8 8 8 7 7 8 8 7 6 4 4 5 4 2 3 2 1 1 2 5 7 7 8 9 10 12 12 14 15 14 16 23 28 28 25 23 23 23 23 23 23 23 24 25 26 24 23 23 23 24 23 23 22 22 22 21 21 22
6 6 6 7 8 8 9 9 9 9 9 9 9 10 10 11 12 12 12 11 11 11 11 10 10 10 10 10 10 10 10 9 8 8 8 7 6 5 6 5 3 4 3 1 1 2 5 8 8 9 9 11 12 13 15 16 16 19 24 27 27 25 23 24 25 25 26 27 27 25 24 25 25 25 25 24 24 24 23 24 23 22 21 22 23
6 6 7 8 8 9 9 9 9 10 10 10 10 10 11 12 12 12 12 12 11 10 10 10 10 10 10 10 10 11 11 10 9 9 9 8 8 6 6 5 3 4 4 3 3 3 6 10 10 9 11 12 14 15 15 17 18 20 25 27 26 24 23 25 26 27 29 31 30 29 27 27 26 27 27 26 25 25 25 25 24 23 22 23 24
6 7 8 9 9 9 10 10 10 10 10 10 11 11 11 12 12 12 12 11 11 11 11 11 11 11 10 11 11 11 11 11 10 10 9 9 9 8 7 4 2 4 5 4 5 6 8 11 10 10 12 14 15 16 17 19 19 20 26 28 24 23 25 26 27 30 33 34 32 31 30 29 29 29 29 28 28 28 27 26 24 24 25 25 26
8 10 10 11 10 11 11 11 11 11 11 11 11 11 12 11 11 11 11 11 11 12 12 12 12 12 11 12 12 11 11 10 10 10 10 9 9 9 9 6 3 4 5 5 6 7 10 12 11 11 14 16 16 17 19 21 19 22 29 27 23 24 26 26 28 33 37 35 33 32 31 31 31 31 31 31 31 30 28 26 25 26 26 27 27
10 12 12 12 12 12 12 12 12 11 11 11 11 11 11 11 11 10 10 11 12 12 12 11 12 12 12 12 11 11 10 9 9 9 9 9 8 8 9 8 6 4 4 5 6 7 10 13 12 12 15 17 18 19 21 21 20 24 28 25 24 26 26 27 33 37 37 34 33 33 32 32 32 32 33 32 32 30 28 27 28 28 28 28 27
12 12 13 12 12 13 12 12 12 11 11 11 11 11 11 10 10 10 10 11 11 11 10 10 10 11 11 11 10 10 9 9 9 9 8 8 8 8 8 9 8 6 5 5 5 7 12 14 13 15 17 18 19 21 22 21 21 24 26 25 26 26 27 32 38 38 35 33 33 34 33 33 33 33 34 32 31 31 31 31 30 29 29 28 27
13 13 13 13 13 13 13 13 12 11 11 11 11 11 10 10 10 10 10 10 11 11 10 10 10 10 10 10 9 9 8 8 8 8 8 7 7 7 7 7 8 7 6 6 5 7 12 14 14 16 18 19 20 21 21 20 21 24 25 26 26 27 31 37 37 35 34 33 33 33 33 33 33 35 35 34 34 34 34 33 32 30 29 28 28
13 14 14 14 14 13 13 13 12 12 11 11 11 10 10 10 10 10 10 10 10 10 9 9 9 9 9 9 8 8 7 8 8 8 7 7 6 7 6 6 6 6 6 7 6 8 12 14 15 16 18 20 21 21 21 20 21 23 24 25 27 29 34 34 33 32 32 32 32 33 34 35 36 36 37 37 38 36 34 33 32 31 30 30 30
14 14 14 14 14 14 13 13 13 12 11 11 10 10 10 10 9 10 10 10 10 10 9 9 8 8 8 8 8 7 6 7 7 7 7 7 6 6 6 5 5 5 6 7 8 10 13 14 16 17 17 19 20 20 21 21 21 22 23 25 27 30 31 30 30 31 31 31 32 34 36 36 37 38 39 39 38 36 34 34 34 33 32 33 32
15 15 14 14 14 14 14 13 13 12 12 11 10 10 10 10 10 10 10 10 10 10 9 9 8 8 8 9 8 7 7 7 7 7 6 6 6 6 5 5 5 5 7 8 9 12 14 15 16 17 17 18 20 20 21 23 22 23 24 26 27 28 28 29 29 30 31 32 34 36 37 38 39 39 39 39 38 37 36 36 36 36 34 34 33
15 15 15 14 14 14 14 13 13 13 12 11 10 10 11 11 11 10 10 10 9 9 9 9 8 8 8 8 8 7 7 7 7 7 7 6 6 6 6 5 6 7 8 9 10 12 15 16 17 17 17 18 19 20 21 23 24 24 26 28 27 27 27 29 30 31 32 33 35 38 40 40 40 38 38 38 38 37 37 37 37 36 35 34 34
14 14 14 15 14 14 14 14 13 13 12 11 10 11 12 12 11 10 10 9 9 9 8 8 8 8 8 7 6 6 6 6 6 7 7 7 6 6 7 6 7 8 9 10 11 12 15 17 17 18 18 18 19 21 22 22 24 26 27 28 27 27 28 30 31 32 34 35 37 40 40 39 38 37 37 37 36 36 36 37 37 37 36 35 35
14 14 14 14 14 14 14 14 14 13 12 11 10 11 12 11 11 11 10 9 8 8 8 8 8 7 7 6 6 5 5 6 6 6 7 8 7 6 7 8 8 9 10 10 11 13 15 17 17 18 18 18 19 21 22 23 24 26 27 27 28 29 29 30 31 33 35 35 36 38 38 37 36 37 36 36 36 37 37 37 37 37 37 36 35
15 14 14 14 14 14 14 14 14 14 12 11 11 11 11 11 11 10 10 9 8 8 8 8 7 7 6 6 6 5 5 6 6 7 8 8 7 7 8 9 9 11 12 12 12 13 14 16 18 18 18 18 19 20 22 24 27 27 25 26 28 30 31 30 31 34 36 35 35 36 36 36 35 37 38 38 37 37 36 36 36 36 35 34 34
15 15 15 14 14 15 14 14 14 14 13 12 11 11 11 11 10 10 9 9 8 8 7 7 6 6 6 5 5 5 6 6 6 7 8 9 8 8 9 10 11 12 12 13 14 14 15 16 18 18 19 19 19 20 21 24 27 28 29 29 29 29 29 30 32 34 34 34 34 34 35 35 36 38 39 38 37 36 35 34 33 33 33 33 32
15 15 15 14 14 14 14 14 14 14 13 12 11 11 11 11 10 9 9 8 8 7 6 6 6 5 5 5 4 5 6 6 6 7 9 10 9 9 10 10 12 13 13 13 14 15 15 16 17 18 19 19 19 20 23 25 24 25 29 32 33 31 29 30 33 35 34 33 33 34 35 35 36 37 37 37 36 35 33 31 31 31 31 31 31
13 13 14 14 14 13 14 14 13 13 13 12 12 11 11 11 10 9 9 8 7 6 6 5 5 4 4 4 4 5 5 6 5 6 9 11 10 9 10 11 12 13 13 13 14 15 16 16 17 17 19 19 19 21 23 25 24 25 28 30 33 34 32 30 32 34 35 33 33 35 36 35 34 35 35 35 34 33 31 30 29 29 28 27 27
12 11 12 13 14 13 13 13 13 13 13 12 12 12 11 10 10 9 8 8 7 6 6 5 4 3 3 3 3 3 4 5 5 6 10 12 12 11 10 11 12 12 12 13 14 15 16 17 17 18 19 19 20 22 24 24 25 28 31 31 31 33 33 31 31 33 33 33 35 36 35 34 34 36 35 33 32 30 30 29 27 25 24 23 23
11 11 11 11 13 13 13 13 13 13 12 12 13 14 13 11 10 8 8 7 6 6 5 5 4 3 3 2 1 2 4 6 5 6 9 11 13 13 11 11 11 11 11 12 14 15 16 17 17 18 19 19 21 23 23 24 27 29 31 32 32 32 32 30 30 32 33 34 37 38 36 34 34 35 34 32 31 30 29 27 26 25 25 25 26
11 11 10 9 10 12 13 13 13 13 11 12 15 17 15 13 11 8 8 7 6 6 5 5 4 4 3 3 1 1 4 6 5 6 9 11 13 14 12 10 10 11 11 11 13 14 15 16 17 18 18 20 22 23 23 25 28 29 30 31 31 32 31 29 29 31 35 38 38 38 37 34 33 33 33 33 32 31 29 29 29 30 30 30 30
15 14 14 12 10 11 13 13 13 13 11 13 17 16 15 15 13 9 7 7 7 6 6 5 4 4 4 3 1 1 2 5 5 6 9 11 13 14 13 10 11 12 12 12 12 13 14 16 17 18 19 20 22 23 23 26 28 28 30 30 29 30 31 31 30 33 38 41 38 36 36 34 31 33 34 33 32 32 31 31 32 32 31 30 30
18 18 18 16 13 12 13 13 14 13 12 16 18 17 15 15 14 10 8 8 8 7 6 5 4 4 4 3 2 1 2 4 5 6 8 9 11 12 12 10 10 11 11 12 14 15 15 15 17 19 19 20 21 22 24 26 27 29 30 30 29 29 31 31 32 36 40 40 37 35 34 33 32 33 35 33 31 31 32 32 33 33 32 32 32
17 17 18 17 15 14 13 13 13 12 13 18 19 17 15 15 14 12 8 7 8 6 6 5 4 4 4 2 2 1 2 3 5 8 9 9 10 10 10 9 9 10 9 9 13 16 15 14 16 18 19 20 20 22 23 24 25 28 30 31 32 31 32 32 33 36 37 37 36 33 30 33 35 34 35 34 32 33 33 32 33 34 33 32 31
19 18 17 16 15 15 14 14 13 12 14 19 19 18 16 14 14 11 6 6 7 6 6 6 5 5 4 3 2 1 2 3 6 10 11 11 11 9 10 10 10 10 8 9 13 17 16 16 16 17 19 20 20 22 24 25 26 28 29 31 31 30 31 32 32 34 34 34 34 29 26 34 37 33 34 34 32 33 33 32 32 31 30 29 27
17 17 16 15 16 16 14 14 13 12 15 19 19 17 16 14 13 10 6 7 8 7 7 7 6 6 4 3 2 2 2 3 8 10 11 13 11 10 11 12 12 11 10 11 17 19 20 21 20 18 20 22 23 25 27 27 30 32 31 29 28 28 29 29 29 32 34 33 32 29 28 34 35 32 33 34 32 32 33 31 29 28 27 27 24
15 15 15 15 16 16 16 15 13 12 16 20 18 17 16 14 13 10 8 8 9 8 8 8 7 6 5 4 2 2 2 3 7 9 11 13 11 10 12 12 12 12 11 14 19 20 22 24 22 22 23 25 26 28 27 27 30 32 31 28 28 29 28 25 24 29 34 33 33 32 31 32 33 32 33 33 32 31 31 29 28 27 27 26 23
15 15 15 14 15 16 16 15 14 13 16 20 19 17 16 15 13 11 9 9 9 8 9 8 7 6 5 5 2 1 2 3 6 8 10 12 10 10 13 12 12 13 14 17 20 21 22 23 21 22 23 24 25 25 24 25 27 28 27 27 28 28 27 25 25 28 31 30 32 34 31 29 31 32 32 33 31 28 26 27 28 28 26 23 20
14 14 14 14 14 15 14 15 14 13 15 19 19 17 16 16 14 11 9 9 9 9 9 9 7 6 6 5 2 1 2 3 6 7 9 10 10 10 12 12 12 14 16 19 21 21 22 21 20 20 20 20 21 21 21 23 24 25 25 26 27 27 25 27 29 26 23 24 32 37 33 28 28 29 29 27 22 21 25 27 27 27 24 19 17
Wind_Direction
130 144 145 155 153 132 118 111 110 107 99 94 83 69 54 27 12 3 347 344 354 4 356 344 346 358 6 19 19 16 19 28 48 62 77 74 64 64 69 69 69 66 63 68 70 68 64 61 58 52 44 37 31 25 14 7 8 360 347 338 332 329 326 321 319 318 315 308 300 299 298 296 299 302 302 294 288 293 293 285 283 282 279 275 270
127 135 134 139 140 120 103 98 94 86 86 84 72 67 59 35 18 3 358 355 360 5 356 341 344 7 16 22 30 35 42 48 56 67 81 81 70 68 73 80 82 77 78 85 90 88 82 76 71 64 57 48 40 36 30 24 23 17 7 358 351 345 341 339 333 324 319 312 304 299 296 295 295 295 298 296 289 289 291 286 283 283 280 276 267
130 128 131 130 120 108 98 95 83 70 65 60 57 55 51 40 25 9 2 359 360 360 353 348 350 12 27 31 40 51 61 63 66 71 81 87 80 70 65 67 78 87 91 92 95 94 87 81 80 80 75 66 56 42 28 25 22 19 17 15 15 12 4 0 355 344 333 321 310 304 297 292 289 288 292 295 290 285 287 288 288 286 284 280 272
138 128 126 128 121 112 101 91 80 67 56 51 46 42 44 39 24 12 6 2 359 356 355 1 7 20 33 45 55 63 72 74 77 79 83 88 89 82 67 53 49 65 88 91 89 84 79 79 75 79 85 82 73 53 36 28 20 20 26 23 20 21 17 12 7 358 350 339 328 319 308 297 290 287 289 294 294 287 283 284 288 289 288 285 280
158 141 131 132 125 117 109 98 87 74 57 48 39 36 41 34 20 11 4 359 358 360 3 15 28 35 37 53 68 72 76 79 80 81 83 85 82 79 75 58 41 37 50 67 80 77 68 67 62 64 66 67 74 61 47 32 18 17 30 28 25 26 25 23 18 10 1 351 341 335 330 318 303 291 285 286 290 290 284 282 283 286 288 288 285
170 153 140 136 125 117 111 95 82 70 53 41 37 35 32 23 13 4 359 358 2 7 12 20 29 42 43 58 75 78 78 79 79 80 78 77 75 71 66 63 55 43 37 37 53 62 56 51 46 47 47 46 51 52 49 36 21 11 18 25 25 25 24 24 21 16 10 1 350 340 337 337 329 311 295 288 288 290 289 286 283 282 285 286 285
171 159 142 133 122 112 102 85 72 60 46 39 35 29 21 13 4 359 355 351 359 6 10 18 26 46 58 69 79 82 81 78 76 76 74 72 69 66 61 57 55 53 45 35 33 36 39 38 33 31 30 33 35 33 35 36 22 8 360 5 10 13 13 15 17 15 10 4 358 348 342 343 344 339 330 325 314 299 291 289 285 283 282 282 281
158 153 140 130 121 106 94 83 75 61 43 31 19 14 6 356 358 4 356 339 339 346 357 36 57 67 82 85 83 82 80 77 73 71 70 70 67 62 60 55 51 49 46 42 31 22 24 29 27 23 20 20 21 23 24 27 23 13 6 4 360 358 356 356 2 7 5 1 359 353 345 343 346 348 347 356 354 332 309 298 289 283 281 279 278
142 142 135 125 115 102 93 84 70 45 23 12 4 8 358 344 354 9 6 331 318 322 349 80 93 92 92 87 83 81 78 75 73 72 70 68 66 62 58 54 50 47 44 41 37 26 20 26 27 21 19 20 18 16 15 18 22 20 15 13 9 5 359 351 347 350 350 351 354 348 342 339 341 345 344 351 359 355 343 328 308 294 287 279 274
131 127 121 112 105 99 93 78 51 20 8 5 6 16 14 8 1 353 354 328 313 306 260 114 113 112 97 87 82 81 79 78 74 72 71 68 65 62 59 55 50 48 47 43 40 36 29 28 28 19 15 23 27 23 19 19 19 19 17 15 12 9 6 2 356 350 344 340 340 334 331 330 329 332 333 335 346 353 349 338 330 325 312 296 281
120 114 109 106 100 93 80 50 24 6 6 8 360 1 8 13 8 348 344 331 344 296 168 122 117 118 100 87 83 82 79 77 76 72 70 67 64 62 59 56 52 49 49 47 42 39 37 34 32 25 14 17 25 27 24 22 19 16 13 11 12 10 8 7 4 2 356 347 340 333 327 325 322 320 320 320 326 339 344 338 331 330 326 318 302
112 108 109 108 101 84 41 13 11 7 7 4 349 346 356 358 351 348 333 327 52 114 147 125 120 121 107 91 83 82 80 76 74 71 67 64 62 60 59 56 53 51 49 48 45 40 39 36 32 30 22 14 17 19 20 17 13 15 13 8 11 9 7 8 6 5 3 355 348 343 337 331 326 320 316 319 320 322 329 333 329 324 324 319 315
120 119 109 98 79 42 17 13 16 13 360 351 344 342 354 4 18 29 359 117 86 116 147 139 135 131 120 108 94 83 79 78 72 69 66 63 63 61 60 59 54 52 50 48 47 43 40 38 33 31 28 22 17 16 19 12 6 13 12 6 8 7 4 5 4 2 1 357 354 350 345 340 335 328 322 322 325 322 318 320 320 315 317 315 317
127 118 86 50 33 24 22 21 18 6 352 351 355 355 360 23 133 93 84 95 95 118 156 166 170 163 152 139 122 102 86 80 72 68 66 62 64 63 62 62 58 53 52 51 49 47 44 40 36 33 30 27 22 19 21 15 8 14 11 3 3 2 1 1 0 359 358 356 354 351 347 345 341 334 329 325 327 329 321 314 311 305 304 308 314
115 86 46 26 20 22 25 19 12 2 355 359 10 22 39 84 137 116 101 98 92 102 165 222 238 191 179 183 162 154 131 103 84 71 68 66 65 65 64 63 60 56 53 53 50 47 45 40 35 33 29 25 20 18 17 14 12 15 12 5 2 359 358 357 355 354 354 352 350 348 346 345 343 338 333 331 329 331 326 319 313 303 295 300 305
95 64 46 19 7 22 30 18 11 7 15 26 37 54 71 96 110 100 102 106 92 82 102 241 281 238 209 227 192 192 183 132 116 93 79 72 67 66 65 64 61 57 54 50 47 45 40 36 32 28 25 20 15 14 11 8 6 7 6 3 5 3 358 355 353 350 349 348 346 345 343 340 340 339 337 335 333 332 330 326 322 309 296 294 296
89 62 44 16 10 30 41 37 34 40 57 65 68 74 79 90 98 90 81 89 99 87 71 71 42 313 325 319 222 227 96 132 136 112 94 82 74 72 65 64 62 56 55 48 42 41 33 31 29 22 21 16 12 10 5 3 1 1 357 356 0 1 358 356 353 349 346 344 342 341 339 337 335 336 336 335 332 330 330 329 328 321 307 296 293
67 44 33 33 43 54 64 69 65 67 73 75 77 79 80 83 83 86 86 81 99 101 77 69 73 72 50 35 32 12 52 146 164 125 116 101 81 79 66 64 66 59 56 48 41 38 29 25 22 19 17 13 10 7 1 357 354 354 347 347 353 355 351 350 347 345 344 342 341 338 335 333 331 332 332 331 329 327 328 327 325 325 318 307 298
42 29 34 58 75 79 83 82 80 79 77 77 78 77 79 82 82 84 89 87 98 108 95 79 72 66 61 63 62 47 42 61 131 130 145 125 94 93 78 65 62 62 57 46 40 35 27 22 17 14 12 8 6 1 358 353 347 347 339 339 348 351 347 345 341 339 340 339 339 336 332 330 328 328 328 326 324 324 324 324 322 321 319 315 308
41 44 72 87 92 90 89 87 86 83 79 80 79 81 83 83 85 84 82 83 85 98 102 97 92 77 67 68 66 59 53 46 31 15 155 135 124 120 99 81 67 61 57 44 36 29 23 17 10 7 2 360 359 354 352 348 343 342 335 339 348 350 346 342 338 336 336 336 335 333 330 329 326 324 323 322 320 320 320 320 320 317 315 315 313
64 87 98 98 98 96 95 93 90 87 86 88 86 88 90 87 87 88 88 88 82 87 97 97 99 94 81 77 72 68 65 55 44 33 33 75 111 109 109 135 102 61 49 45 33 25 18 9 4 4 358 354 351 348 345 340 336 330 330 341 348 348 346 344 339 336 334 333 332 329 327 327 325 321 318 318 317 315 315 316 316 314 312 310 310
97 105 106 104 103 101 100 98 95 95 94 94 94 92 93 94 96 95 93 91 85 85 89 89 87 80 75 80 81 78 73 61 52 48 47 52 68 71 61 94 117 75 59 38 8 3 4 360 357 358 356 353 349 345 341 335 330 321 326 338 343 341 342 343 339 338 334 330 328 324 323 323 320 314 312 313 313 313 311 312 313 311 309 307 306
117 112 109 108 109 106 104 104 101 101 100 98 98 96 94 96 98 97 93 89 88 86 83 83 83 79 75 75 74 70 68 63 51 46 48 46 47 54 43 31 50 72 67 25 342 345 355 354 353 354 351 348 346 342 338 334 328 319 323 334 338 336 336 335 332 332 332 329 324 319 318 318 314 308 307 308 307 308 308 308 308 307 306 305 305
121 116 120 121 117 112 109 108 104 103 104 103 101 101 99 97 96 95 92 88 87 87 84 84 85 83 78 76 76 72 66 62 54 48 46 37 28 33 34 22 23 46 42 18 43 26 7 359 354 355 351 345 343 338 333 331 326 321 324 330 332 332 330 325 322 322 323 324 322 320 316 313 310 305 304 304 304 303 304 304 304 303 304 303 303
128 128 134 132 124 120 116 112 110 108 108 106 105 104 101 100 99 96 93 90 87 88 89 86 85 85 83 79 76 73 67 62 56 53 46 38 33 26 20 15 10 18 23 31 39 26 11 4 356 354 352 346 340 336 331 328 322 319 324 328 328 327 323 319 320 320 320 319 318 318 317 314 311 307 304 303 302 300 300 301 301 300 301 301 301
139 140 143 139 130 125 121 117 117 115 113 111 108 106 105 103 103 99 95 93 92 91 89 87 85 85 86 83 78 74 69 63 60 55 49 43 38 23 9 6 11 15 17 26 30 22 6 359 355 353 350 345 340 335 330 328 322 319 327 329 326 322 319 316 318 320 320 317 314 314 314 313 312 310 307 305 304 303 303 301 299 299 298 297 297
141 143 145 142 133 129 126 123 123 120 118 115 111 109 109 107 106 103 101 99 97 93 90 89 88 86 86 85 80 76 71 66 64 60 55 50 43 29 14 7 11 21 17 15 20 20 6 355 352 352 349 343 340 335 329 328 324 324 330 329 320 318 318 315 315 317 317 316 313 312 312 311 311 310 309 308 307 305 302 298 295 295 295 294 294
141 142 144 142 136 134 131 128 127 126 122 119 116 116 114 111 111 109 107 104 99 96 93 91 89 87 86 85 84 81 76 73 70 65 61 56 48 38 28 19 7 1 5 8 10 9 3 356 348 347 349 342 338 334 329 326 324 325 328 323 314 314 315 313 313 314 314 314 314 313 312 310 309 308 307 307 304 300 296 294 293 291 292 293 292
142 144 145 142 140 138 135 133 132 130 126 122 122 123 121 118 119 116 112 108 102 98 96 93 90 88 87 87 88 86 82 78 73 67 64 59 51 43 37 28 15 2 352 353 359 354 351 351 343 339 340 339 335 331 326 322 321 323 322 316 312 310 310 312 314 314 314 315 315 313 311 310 309 308 306 302 298 295 294 293 291 290 289 290 289
146 147 146 144 144 142 139 138 136 132 130 129 129 130 127 125 124 119 115 111 106 101 97 94 91 91 92 93 92 90 86 80 74 68 61 57 52 44 38 31 20 12 353 337 343 347 340 338 335 332 330 331 329 325 320 317 317 319 316 312 309 308 310 313 314 314 315 315 314 313 311 309 307 306 305 301 298 296 295 293 291 290 288 287 287
151 150 149 149 149 146 144 142 139 138 136 135 136 136 134 132 129 123 119 114 109 104 100 96 94 97 100 99 95 92 88 81 74 67 58 51 49 40 33 27 17 7 347 329 321 332 332 326 324 325 324 323 323 320 317 316 316 317 314 310 309 310 311 312 313 314 314 313 313 311 309 306 305 305 304 303 303 299 295 294 292 290 287 285 285
155 154 154 154 152 150 148 145 144 144 142 142 142 142 142 139 135 128 123 116 111 107 104 101 102 103 103 100 96 90 87 81 71 62 54 46 42 37 27 17 10 356 340 326 312 314 322 320 318 321 322 321 320 320 319 317 317 317 315 311 311 311 311 311 313 315 314 313 312 311 309 307 307 306 305 304 302 299 295 294 293 291 290 288 287
158 156 156 156 155 153 151 150 150 149 148 148 148 149 148 143 136 131 127 121 114 111 111 109 107 107 104 100 95 86 80 76 66 56 47 38 34 30 18 7 3 355 339 327 314 311 317 320 320 320 322 322 320 320 321 319 319 319 317 314 313 313 313 313 314 315 315 314 313 312 310 307 307 306 304 303 301 299 297 295 294 293 292 290 288
159 158 157 157 157 156 155 155 154 153 154 153 153 153 150 144 139 135 132 128 121 117 117 115 112 111 107 102 96 87 76 69 62 50 38 28 26 20 11 1 352 347 338 327 318 313 315 320 322 323 324 324 320 321 323 321 320 321 319 317 316 315 315 316 315 314 316 315 312 311 309 307 307 306 304 303 301 299 298 295 294 293 291 290 287
159 159 159 159 159 158 158 158 157 158 157 154 154 153 150 147 143 140 139 134 129 127 123 119 116 113 110 103 96 87 75 65 59 48 33 22 20 14 6 357 346 340 335 327 320 316 316 318 323 325 326 324 321 322 324 322 321 322 320 318 318 317 317 317 315 315 317 316 312 311 310 310 310 308 306 304 302 300 298 296 294 292 290 288 286
159 160 160 160 161 161 161 162 161 162 160 155 154 152 151 150 146 144 143 138 136 133 123 119 117 114 111 103 94 84 72 62 53 42 30 20 16 12 3 354 348 341 333 327 323 320 317 317 321 324 324 324 322 323 325 323 322 322 320 319 318 319 319 318 316 317 318 317 314 312 311 311 310 308 306 304 303 301 298 295 293 290 288 287 284
162 160 160 162 165 166 166 166 165 164 162 157 153 152 152 152 150 147 145 143 141 134 124 119 115 111 108 101 93 80 65 57 48 35 24 17 12 9 1 354 349 341 334 330 327 324 321 318 320 323 323 324 324 324 327 327 325 323 321 321 320 319 320 319 317 319 320 319 317 314 312 312 311 309 306 304 302 300 298 296 293 291 288 286 284
164 162 163 166 169 170 169 169 168 166 163 159 155 156 156 155 153 150 148 148 145 138 132 124 117 111 103 97 91 75 58 50 43 30 19 14 10 5 358 352 347 341 335 333 331 328 327 323 322 323 325 327 326 325 329 330 327 325 325 324 322 321 321 320 319 321 322 321 319 316 314 313 313 310 308 306 304 301 300 298 295 292 289 286 284
167 166 167 169 172 172 171 170 169 166 164 162 159 159 159 159 157 154 153 152 150 147 144 134 124 113 100 94 88 72 54 42 38 30 19 14 8 2 358 352 345 341 337 335 335 333 331 329 327 327 327 328 327 326 329 330 327 327 328 326 323 323 323 320 321 324 325 323 321 318 316 315 314 312 310 309 306 303 302 300 298 295 291 287 284
169 171 172 172 171 171 172 171 170 168 167 166 165 165 164 163 161 160 160 158 154 154 154 150 141 125 107 93 80 70 51 36 35 34 25 18 10 2 359 353 345 342 339 337 338 338 335 333 331 330 328 328 329 330 330 331 331 330 331 327 321 320 322 321 323 326 327 326 323 320 319 318 317 314 312 310 309 307 305 303 300 296 293 289 285
171 177 178 175 171 170 171 171 170 171 172 171 171 169 167 166 167 166 166 165 165 164 164 166 164 153 134 102 81 73 47 33 34 34 25 19 14 6 359 353 348 344 342 341 342 341 337 334 332 333 331 329 332 333 332 334 334 330 328 326 320 319 321 322 324 327 328 328 325 321 320 319 317 314 313 311 309 308 307 304 300 297 295 293 291
170 177 180 181 177 173 172 173 173 175 177 179 179 175 169 167 169 169 171 172 174 175 174 176 178 181 179 155 111 40 25 22 17 19 18 13 10 7 5 4 360 351 345 344 345 343 337 333 333 333 332 330 332 333 331 332 332 328 328 326 322 322 324 324 325 329 331 331 327 321 318 319 317 314 312 311 309 308 305 302 299 298 297 295 294
169 170 171 180 187 182 176 176 178 178 182 188 186 180 174 169 167 169 175 177 180 184 184 185 187 190 193 191 198 348 8 4 347 345 353 353 356 0 8 16 12 3 358 351 345 342 337 332 330 331 332 331 330 330 331 332 331 329 328 325 323 326 328 329 328 329 332 333 329 321 317 319 319 315 312 311 310 308 304 300 298 297 296 294 292
185 183 178 183 196 193 182 180 181 183 191 195 187 180 177 174 170 171 180 182 185 191 192 193 194 189 191 202 211 238 339 359 356 342 341 339 340 347 356 5 3 358 1 1 353 343 334 329 327 330 331 329 328 330 332 332 329 327 326 325 326 328 328 327 327 326 329 332 329 321 316 319 320 316 312 311 311 309 305 302 300 297 295 292 289
192 190 183 186 197 196 185 182 184 186 194 194 186 180 180 179 176 178 185 189 191 194 193 195 199 188 186 200 202 230 313 353 1 347 340 337 335 338 347 353 351 346 350 0 360 348 335 327 324 326 329 328 326 327 329 330 327 327 327 325 326 327 326 325 325 325 328 331 329 322 317 318 322 318 311 311 311 309 305 302 300 298 296 293 288
184 182 182 187 194 193 187 184 185 187 192 191 186 185 185 185 185 187 190 190 190 192 189 191 197 188 185 200 207 264 323 343 349 346 344 339 334 336 343 344 344 343 344 352 355 349 340 331 324 321 322 323 321 322 325 327 326 326 327 323 322 323 324 325 325 325 327 330 329 326 319 320 324 319 312 312 312 308 306 303 301 299 297 294 288
178 179 183 188 189 187 186 185 183 186 191 190 189 190 191 189 191 195 198 193 192 194 191 189 191 184 179 190 211 300 332 330 342 350 352 346 338 337 342 342 343 347 346 339 340 341 340 335 326 318 318 321 323 325 327 326 323 323 322 318 318 320 323 325 328 330 331 330 331 330 323 322 325 321 314 314 312 308 307 306 305 304 301 297 291
179 181 183 185 184 181 181 184 182 183 190 191 191 193 192 190 192 198 205 201 199 197 190 185 182 179 180 193 220 293 323 326 340 351 358 354 345 338 341 343 344 345 344 336 334 335 336 337 336 332 331 334 334 332 331 329 327 324 320 319 321 324 326 330 333 334 333 333 334 334 325 323 327 324 315 314 313 309 309 309 308 307 306 303 297
179 180 179 180 181 179 179 182 181 181 188 191 192 192 192 194 196 201 207 205 200 193 184 180 177 176 182 193 216 305 313 328 339 350 359 357 348 340 340 342 342 342 340 336 334 332 332 333 335 337 337 337 335 333 331 331 330 328 325 325 328 329 330 333 335 334 334 334 337 335 326 324 329 325 316 314 314 310 310 311 312 311 310 306 298
177 177 175 174 177 179 181 182 179 177 184 191 194 195 199 203 201 201 206 201 193 186 179 177 178 177 182 190 199 282 290 326 342 350 359 357 346 340 340 339 338 339 338 334 331 329 328 328 329 329 329 330 331 330 329 328 330 331 330 328 329 330 332 335 335 332 332 335 340 338 329 325 330 327 320 319 318 315 315 315 316 316 313 307 298
173 173 172 170 173 177 178 180 179 176 183 194 199 201 206 207 200 199 206 198 187 184 180 176 178 180 184 194 208 253 275 318 338 345 354 355 346 339 339 338 337 336 334 330 325 323 322 323 324 323 323 326 328 326 328 328 329 333 332 329 330 331 332 335 335 333 332 333 339 341 335 329 331 330 326 325 323 322 323 323 322 321 316 309 302